Starlink 35233

operational
NORAD ID: 65678 Int'l Des: 2025-212 Owner: SPXS Country: US Constellation: starlink
LEOCIRCULAR

Starlink 35233について

説明を読み込み中...

リアルタイム位置

3D地球を読み込み中...

次回通過

高度履歴

Altitude vs Time

uPlot chart will show altitude changes over time

軌道要素

1 65678U 25212C 26061.14085639 .00033866 00000-0 11502-2 0 9992
2 65678 53.1627 21.0352 0001397 93.5859 266.5302 15.30204279 26094
Epoch: Mar 2, 2026 • Age: 29 hours

現在のステータス

高度 475.0 km
速度 7.63 km/s
衛星直下点 11.16°N, 155.83°E
打ち上げ日 Sep 21, 2025
運用期間 0.4 years
タイプ internet

技術仕様

分類 Payload
質量 575.00 kg
乾燥質量 530.00 kg
総質量 575.00 kg
長さ 0.30 m
直径 4.10 m
スパン 29.00 m
形状 Box + pan
製造者 SPXS
バスタイプ Starlink V2MO
フェーズステータス In Orbit
所有者/国 SPXS/US

大規模コンステレーション

Loading constellations...